Location: Lafig�re
(44.4503°N, 4.0357°E)
Time: 16:12:55
(UTC+00:00)

S-56A Canister/Altair - Pass Details

Date: 21 January 2021
Orbit: 631 x 2501 km, 38.9° (Epoch: 04 March)

Event Time Altitude Azimuth Distance (km) Brightness Sun altitude
Rises 04:39:48 0° 253° (WSW) 2,921 - -27.0°
Reaches altitude 10° 04:42:00 10° 247° (WSW) 2,059 - -26.7°
Exits shadow 04:46:02 45° 187° (S) 991 8.0 -25.9°
Maximum altitude 04:46:23 46° 174° (S) 991 8.0 -25.9°
Drops below altitude 10° 04:52:01 10° 102° (ESE) 2,633 11.3 -24.9°
Sets 04:55:10 0° 97° (E) 3,845 12.5 -24.3°
